This is the latest recevied weather packets stored in our database for station/object M0JUI-1. If no packets are shown the sender has not sent any weather packets the latest 10 day(s).
| Time | Temp. | Humidity | Pressure | Rain* | Wind** | Luminosity | Snow |
|---|---|---|---|---|---|---|---|
| 1778081896 | 12.22° C | 81% | 1014.7 hPa | 0 mm | - | 427 W/m² | - |
| 1778081596 | 12.22° C | 80% | 1014.7 hPa | 0 mm | - | 309 W/m² | - |
| 1778081283 | 12.22° C | 79% | 1015 hPa | 0 mm | - | 257 W/m² | - |
| 1778080983 | 11.67° C | 80% | 1014.8 hPa | 0 mm | - | 222 W/m² | - |
| 1778080683 | 11.67° C | 81% | 1015 hPa | 0 mm | - | 190 W/m² | - |
| 1778080371 | 11.67° C | 83% | 1014.6 hPa | 0 mm | - | 170 W/m² | - |
| 1778080071 | 11.67° C | 83% | 1014.8 hPa | 0 mm | - | 158 W/m² | - |
| 1778079772 | 11.67° C | 83% | 1014.8 hPa | 0 mm | - | 141 W/m² | - |
| 1778079459 | 11.67° C | 83% | 1014.9 hPa | 0 mm | - | 126 W/m² | - |
| 1778079159 | 12.22° C | 80% | 1014.8 hPa | 0 mm | - | 116 W/m² | - |
| 1778078859 | 12.22° C | 77% | 1014.9 hPa | 0 mm | - | 133 W/m² | - |
| 1778078559 | 12.78° C | 75% | 1014.7 hPa | 0 mm | - | 225 W/m² | - |
| 1778078259 | 12.22° C | 74% | 1014.9 hPa | 0 mm | - | 495 W/m² | - |
| 1778077959 | 11.67° C | 74% | 1014.8 hPa | 0 mm | - | 312 W/m² | - |
| 1778077659 | 11.67° C | 75% | 1015 hPa | 0 mm | - | 243 W/m² | - |
| 1778077359 | 11.67° C | 78% | 1014.9 hPa | 0 mm | - | 220 W/m² | - |
| 1778077059 | 11.67° C | 77% | 1015.1 hPa | 0 mm | - | 207 W/m² | - |
| 1778076759 | 12.22° C | 77% | 1015 hPa | 0 mm | - | 196 W/m² | - |
| 1778076460 | 11.67° C | 77% | 1014.9 hPa | 0 mm | - | 207 W/m² | - |
| 1778076159 | 12.22° C | 77% | 1015 hPa | 0 mm | - | 201 W/m² | - |
| 1778075859 | 11.67° C | 79% | 1015 hPa | 0 mm | - | 178 W/m² | - |
| 1778075559 | 11.67° C | 78% | 1015 hPa | 0 mm | - | 166 W/m² | - |
| 1778075264 | 12.22° C | 78% | 1015.1 hPa | 0 mm | - | 191 W/m² | - |
| 1778074960 | 12.22° C | 76% | 1015 hPa | 0 mm | - | 223 W/m² | - |
| 1778074659 | 12.78° C | 75% | 1015 hPa | 0 mm | - | 218 W/m² | - |
* Rain latest hour (hover to see other rain measurements)
** Current wind speed in m/s (hover to see current wind gust speed)